This is the latest recevied weather packets stored in our database for station/object SP2ARK-10. If no packets are shown the sender has not sent any weather packets the latest 10 day(s).
| Time | Temp. | Humidity | Pressure | Rain* | Wind** | Luminosity | Snow |
|---|---|---|---|---|---|---|---|
| 1777428903 | 4.44° C | 69% | 1033.2 hPa | - | - | - | - |
| 1777428002 | 4.44° C | 69% | 1033.1 hPa | - | - | - | - |
| 1777427101 | 4.44° C | 66% | 1033.1 hPa | - | - | - | - |
| 1777426200 | 5° C | 65% | 1033.2 hPa | - | - | - | - |
| 1777425299 | 5° C | 65% | 1033 hPa | - | - | - | - |
| 1777424398 | 5° C | 64% | 1033 hPa | - | - | - | - |
| 1777423498 | 5.56° C | 63% | 1033.1 hPa | - | - | - | - |
| 1777422597 | 5.56° C | 62% | 1033.2 hPa | - | - | - | - |
| 1777421697 | 6.11° C | 61% | 1033.1 hPa | - | - | - | - |
| 1777420797 | 6.11° C | 61% | 1033.1 hPa | - | - | - | - |
| 1777419896 | 6.67° C | 61% | 1033 hPa | - | - | - | - |
| 1777418996 | 6.67° C | 60% | 1033 hPa | - | - | - | - |
| 1777418094 | 6.67° C | 60% | 1032.9 hPa | - | - | - | - |
| 1777417194 | 7.22° C | 60% | 1032.8 hPa | - | - | - | - |
| 1777416293 | 7.22° C | 58% | 1032.8 hPa | - | - | - | - |
| 1777415392 | 7.78° C | 56% | 1032.6 hPa | - | - | - | - |
| 1777414491 | 7.78° C | 56% | 1032.5 hPa | - | - | - | - |
| 1777413591 | 8.33° C | 56% | 1032.4 hPa | - | - | - | - |
| 1777412691 | 8.33° C | 56% | 1032.4 hPa | - | - | - | - |
| 1777411790 | 8.89° C | 56% | 1032.2 hPa | - | - | - | - |
| 1777410889 | 8.89° C | 56% | 1032.1 hPa | - | - | - | - |
| 1777409988 | 9.44° C | 56% | 1032.1 hPa | - | - | - | - |
| 1777409087 | 9.44° C | 56% | 1031.9 hPa | - | - | - | - |
| 1777408187 | 10° C | 56% | 1031.8 hPa | - | - | - | - |
| 1777407287 | 10° C | 56% | 1031.6 hPa | - | - | - | - |
* Rain since midnight (hover to see other rain measurements)
** Current wind speed in m/s (hover to see current wind gust speed)